Find OneWeb SL0012

NORAD ID: 44057 Int'l Des: 2019-010 Owner: ONEWEB Country: UK Constellation: oneweb operational
LEOCIRCULARPOLARONEWEB_TYPE

Live Position

Loading 3D Globe...

About OneWeb SL0012

Description loading...

Upcoming Passes

Passes for default location (London). Set your location on the main map for personalized predictions.

Altitude History

Loading altitude history...

Two-Line Element Set

1 44057U 19010A 26105.93567422 -.00000117 00000-0 -34023-3 0 9999
2 44057 87.9064 241.1509 0002106 110.8263 249.3093 13.16593660343378
Epoch: Apr 15, 2026 • Age: 19 hours

Current Status

Altitude 1210.1 km
Velocity 7.26 km/s
Sub-Earth Point 85.92°N, 169.83°E
Launch Date Feb 27, 2019
Age 7.1 years
Type internet

Technical Details

Classification Payload
Mass 148.00 kg
Dry Mass 140.00 kg
Total Mass 148.00 kg
Length 1.30 m
Diameter 1.00 m
Span 5.00 m
Shape Trapezoid+2 pan
Manufacturer ADST
Bus Type ARROW
Phase Status In Orbit
Owner/State ONEWEB/UK

Most Searched